Volver al catálogo

DELTA 1 DEB

ActivoPO
NORAD 19105·DEBRIS·🇺🇸 United States

Lanzado Jan 22, 1975 desde Vandenberg Space Force Base

Loading…

Próximos Pases (próximas 24 horas)

TLE

ActualizadoSource: Space-Track

Época: Sep 13, 2026, 19:01 UTC

1 19105U 75004HN  26256.79304598  .00000354  00000-0  87175-4 0  9992
2 19105  98.7512 193.5143 0059274 256.9736 132.2877 14.57911957196006

Sigue DELTA 1 DEB en tiempo real con AllMySat

Download on the App Store